Time,TemperatureF,DewpointF,PressureIn,WindDirection,WindDirectionDegrees,WindSpeedMPH,WindSpeedGustMPH,Humidity,HourlyPrecipIn,Conditions,Clouds,dailyrainin,SolarRadiationWatts/m^2,SoftwareType,DateUTC
2013-04-16 00:12:00,35.0,31.0,-100.00,North,357,1.0,6.0,85,0.00,,,0.00,0.000000,,2013-04-16 05:12:00,
2013-04-16 00:22:00,35.0,31.0,-100.00,North,357,1.0,6.0,85,0.00,,,0.00,0.000000,,2013-04-16 05:22:00,
2013-04-16 00:32:00,35.0,31.0,-100.00,North,357,1.0,6.0,85,0.00,,,0.00,0.000000,,2013-04-16 05:32:00,
2013-04-16 00:42:00,35.0,31.0,-100.00,North,357,1.0,6.0,85,0.00,,,0.00,0.000000,,2013-04-16 05:42:00,
2013-04-16 01:12:00,34.0,31.0,-100.00,NW,309,2.0,3.0,89,0.00,,,0.00,0.000000,,2013-04-16 06:12:00,
2013-04-16 01:22:00,34.0,31.0,-100.00,NW,309,2.0,3.0,89,0.00,,,0.00,0.000000,,2013-04-16 06:22:00,
2013-04-16 01:32:00,34.0,31.0,-100.00,NW,309,2.0,3.0,89,0.00,,,0.00,0.000000,,2013-04-16 06:32:00,
2013-04-16 01:42:00,34.0,31.0,-100.00,NW,309,2.0,3.0,89,0.00,,,0.00,0.000000,,2013-04-16 06:42:00,
2013-04-16 02:12:00,36.0,31.0,-100.00,North,360,4.0,12.0,82,0.00,,,0.00,0.000000,,2013-04-16 07:12:00,
2013-04-16 02:22:00,36.0,31.0,-100.00,North,360,4.0,12.0,82,0.00,,,0.00,0.000000,,2013-04-16 07:22:00,
2013-04-16 02:32:00,36.0,31.0,-100.00,North,360,4.0,12.0,82,0.00,,,0.00,0.000000,,2013-04-16 07:32:00,
2013-04-16 02:42:00,36.0,31.0,-100.00,North,360,4.0,12.0,82,0.00,,,0.00,0.000000,,2013-04-16 07:42:00,
2013-04-16 03:12:00,36.0,31.0,-100.00,NNW,348,3.0,10.0,83,0.00,,,0.00,0.000000,,2013-04-16 08:12:00,
2013-04-16 03:22:00,36.0,31.0,-100.00,NNW,348,3.0,10.0,83,0.00,,,0.00,0.000000,,2013-04-16 08:22:00,
2013-04-16 03:32:00,36.0,31.0,-100.00,NNW,348,3.0,10.0,83,0.00,,,0.00,0.000000,,2013-04-16 08:32:00,
2013-04-16 03:42:00,36.0,31.0,-100.00,NNW,348,3.0,10.0,83,0.00,,,0.00,0.000000,,2013-04-16 08:42:00,
2013-04-16 04:12:00,35.0,29.0,-100.00,North,353,2.0,7.0,80,0.00,,,0.00,0.000000,,2013-04-16 09:12:00,
2013-04-16 04:22:00,35.0,29.0,-100.00,North,353,2.0,7.0,80,0.00,,,0.00,0.000000,,2013-04-16 09:22:00,
2013-04-16 04:33:00,35.0,29.0,-100.00,North,353,2.0,7.0,80,0.00,,,0.00,0.000000,,2013-04-16 09:33:00,
2013-04-16 04:42:00,35.0,29.0,-100.00,North,353,2.0,7.0,80,0.00,,,0.00,0.000000,,2013-04-16 09:42:00,
2013-04-16 05:13:00,35.0,30.0,-100.00,North,6,1.0,5.0,81,0.00,,,0.00,0.000000,,2013-04-16 10:13:00,
2013-04-16 05:23:00,35.0,30.0,-100.00,North,6,1.0,5.0,81,0.00,,,0.00,0.000000,,2013-04-16 10:23:00,
2013-04-16 05:33:00,35.0,30.0,-100.00,North,6,1.0,5.0,81,0.00,,,0.00,0.000000,,2013-04-16 10:33:00,
2013-04-16 05:42:00,35.0,30.0,-100.00,North,6,1.0,5.0,81,0.00,,,0.00,0.000000,,2013-04-16 10:42:00,
2013-04-16 06:12:00,34.0,30.0,-100.00,North,357,0.0,3.0,85,0.00,,,0.00,0.000000,,2013-04-16 11:12:00,
2013-04-16 06:22:00,34.0,30.0,-100.00,North,357,0.0,3.0,85,0.00,,,0.00,0.000000,,2013-04-16 11:22:00,
2013-04-16 06:32:00,34.0,30.0,-100.00,North,357,0.0,3.0,85,0.00,,,0.00,0.000000,,2013-04-16 11:32:00,
2013-04-16 06:42:00,34.0,30.0,-100.00,North,357,0.0,3.0,85,0.00,,,0.00,0.000000,,2013-04-16 11:42:00,
2013-04-16 07:12:00,34.0,30.0,-100.00,North,356,3.0,5.0,85,0.00,,,0.00,0.000000,,2013-04-16 12:12:00,
2013-04-16 07:22:00,34.0,30.0,-100.00,North,356,3.0,5.0,85,0.00,,,0.00,0.000000,,2013-04-16 12:22:00,
2013-04-16 07:32:00,34.0,30.0,-100.00,North,356,3.0,5.0,85,0.00,,,0.00,0.000000,,2013-04-16 12:32:00,
2013-04-16 07:42:00,34.0,30.0,-100.00,North,356,3.0,5.0,85,0.00,,,0.00,0.000000,,2013-04-16 12:42:00,
2013-04-16 08:12:00,35.0,30.0,-100.00,NE,48,2.0,6.0,83,0.00,,,0.00,9.000000,,2013-04-16 13:12:00,
2013-04-16 08:22:00,35.0,30.0,-100.00,NE,48,2.0,6.0,83,0.00,,,0.00,9.000000,,2013-04-16 13:22:00,
2013-04-16 08:32:00,35.0,30.0,-100.00,NE,48,2.0,6.0,83,0.00,,,0.00,9.000000,,2013-04-16 13:32:00,
2013-04-16 08:42:00,35.0,30.0,-100.00,NE,48,2.0,6.0,83,0.00,,,0.00,9.000000,,2013-04-16 13:42:00,
2013-04-16 09:12:00,36.0,30.0,-100.00,North,3,3.0,7.0,78,0.00,,,0.00,50.000000,,2013-04-16 14:12:00,
2013-04-16 09:22:00,36.0,30.0,-100.00,North,3,3.0,7.0,78,0.00,,,0.00,50.000000,,2013-04-16 14:22:00,
2013-04-16 09:32:00,36.0,30.0,-100.00,North,3,3.0,7.0,78,0.00,,,0.00,50.000000,,2013-04-16 14:32:00,
2013-04-16 09:42:00,36.0,30.0,-100.00,North,3,3.0,7.0,78,0.00,,,0.00,50.000000,,2013-04-16 14:42:00,
2013-04-16 10:12:00,38.0,30.0,-100.00,North,7,4.0,7.0,73,0.00,,,0.00,133.000000,,2013-04-16 15:12:00,
2013-04-16 10:22:00,38.0,30.0,-100.00,North,7,4.0,7.0,73,0.00,,,0.00,133.000000,,2013-04-16 15:22:00,
2013-04-16 10:33:00,38.0,30.0,-100.00,North,7,4.0,7.0,73,0.00,,,0.00,133.000000,,2013-04-16 15:33:00,
2013-04-16 10:43:00,38.0,30.0,-100.00,North,7,4.0,7.0,73,0.00,,,0.00,133.000000,,2013-04-16 15:43:00,
2013-04-16 11:13:00,41.0,31.0,-100.00,North,6,4.0,8.0,66,0.00,,,0.00,284.000000,,2013-04-16 16:13:00,
2013-04-16 11:23:00,41.0,31.0,-100.00,North,6,4.0,8.0,66,0.00,,,0.00,284.000000,,2013-04-16 16:23:00,
2013-04-16 11:32:00,41.0,31.0,-100.00,North,6,4.0,8.0,66,0.00,,,0.00,284.000000,,2013-04-16 16:32:00,
2013-04-16 11:42:00,41.0,31.0,-100.00,North,6,4.0,8.0,66,0.00,,,0.00,284.000000,,2013-04-16 16:42:00,
2013-04-16 12:12:00,45.0,29.0,-100.00,NNE,21,5.0,12.0,53,0.00,,,0.00,645.000000,,2013-04-16 17:12:00,
2013-04-16 12:22:00,45.0,29.0,-100.00,NNE,21,5.0,12.0,53,0.00,,,0.00,645.000000,,2013-04-16 17:22:00,
2013-04-16 12:32:00,45.0,29.0,-100.00,NNE,21,5.0,12.0,53,0.00,,,0.00,645.000000,,2013-04-16 17:32:00,
2013-04-16 12:43:00,45.0,29.0,-100.00,NNE,21,5.0,12.0,53,0.00,,,0.00,645.000000,,2013-04-16 17:43:00,
2013-04-16 13:12:00,49.0,28.0,-100.00,NE,46,5.0,14.0,44,0.00,,,0.00,786.000000,,2013-04-16 18:12:00,
2013-04-16 13:22:00,49.0,28.0,-100.00,NE,46,5.0,14.0,44,0.00,,,0.00,786.000000,,2013-04-16 18:22:00,
2013-04-16 13:32:00,49.0,28.0,-100.00,NE,46,5.0,14.0,44,0.00,,,0.00,786.000000,,2013-04-16 18:32:00,
2013-04-16 13:42:00,49.0,28.0,-100.00,NE,46,5.0,14.0,44,0.00,,,0.00,786.000000,,2013-04-16 18:42:00,
2013-04-16 14:12:00,51.0,26.0,-100.00,NE,40,7.0,16.0,38,0.00,,,0.00,963.000000,,2013-04-16 19:12:00,
2013-04-16 14:22:00,51.0,26.0,-100.00,NE,40,7.0,16.0,38,0.00,,,0.00,963.000000,,2013-04-16 19:22:00,
2013-04-16 14:32:00,51.0,26.0,-100.00,NE,40,7.0,16.0,38,0.00,,,0.00,963.000000,,2013-04-16 19:32:00,
2013-04-16 14:42:00,51.0,26.0,-100.00,NE,40,7.0,16.0,38,0.00,,,0.00,963.000000,,2013-04-16 19:42:00,
2013-04-16 15:12:00,53.0,27.0,-100.00,NE,48,7.0,14.0,37,0.00,,,0.00,703.000000,,2013-04-16 20:12:00,
2013-04-16 15:22:00,53.0,27.0,-100.00,NE,48,7.0,14.0,37,0.00,,,0.00,703.000000,,2013-04-16 20:22:00,
2013-04-16 15:32:00,53.0,27.0,-100.00,NE,48,7.0,14.0,37,0.00,,,0.00,703.000000,,2013-04-16 20:32:00,
2013-04-16 15:42:00,53.0,27.0,-100.00,NE,48,7.0,14.0,37,0.00,,,0.00,703.000000,,2013-04-16 20:42:00,
2013-04-16 16:12:00,55.0,29.0,-100.00,NE,48,7.0,15.0,36,0.00,,,0.00,784.000000,,2013-04-16 21:12:00,
2013-04-16 16:22:00,55.0,29.0,-100.00,NE,48,7.0,15.0,36,0.00,,,0.00,784.000000,,2013-04-16 21:22:00,
2013-04-16 16:32:00,55.0,29.0,-100.00,NE,48,7.0,15.0,36,0.00,,,0.00,784.000000,,2013-04-16 21:32:00,
2013-04-16 16:43:00,55.0,29.0,-100.00,NE,48,7.0,15.0,36,0.00,,,0.00,784.000000,,2013-04-16 21:43:00,
2013-04-16 17:13:00,56.0,28.0,-100.00,ENE,64,6.0,16.0,34,0.00,,,0.00,753.000000,,2013-04-16 22:13:00,
2013-04-16 17:22:00,56.0,28.0,-100.00,ENE,64,6.0,16.0,34,0.00,,,0.00,753.000000,,2013-04-16 22:22:00,
2013-04-16 17:33:00,56.0,28.0,-100.00,ENE,64,6.0,16.0,34,0.00,,,0.00,753.000000,,2013-04-16 22:33:00,
2013-04-16 17:42:00,56.0,28.0,-100.00,ENE,64,6.0,16.0,34,0.00,,,0.00,753.000000,,2013-04-16 22:42:00,
2013-04-16 18:12:00,53.0,30.0,-100.00,ENE,78,6.0,15.0,41,0.00,,,0.00,409.000000,,2013-04-16 23:12:00,
2013-04-16 18:22:00,53.0,30.0,-100.00,ENE,78,6.0,15.0,41,0.00,,,0.00,409.000000,,2013-04-16 23:22:00,
2013-04-16 18:32:00,53.0,30.0,-100.00,ENE,78,6.0,15.0,41,0.00,,,0.00,409.000000,,2013-04-16 23:32:00,
2013-04-16 18:42:00,53.0,30.0,-100.00,ENE,78,6.0,15.0,41,0.00,,,0.00,409.000000,,2013-04-16 23:42:00,
2013-04-16 19:12:00,51.0,32.0,-100.00,East,87,6.0,14.0,48,0.00,,,0.00,85.000000,,2013-04-17 00:12:00,
2013-04-16 19:22:00,51.0,32.0,-100.00,East,87,6.0,14.0,48,0.00,,,0.00,85.000000,,2013-04-17 00:22:00,
2013-04-16 19:32:00,51.0,32.0,-100.00,East,87,6.0,14.0,48,0.00,,,0.00,85.000000,,2013-04-17 00:32:00,
2013-04-16 19:42:00,51.0,32.0,-100.00,East,87,6.0,14.0,48,0.00,,,0.00,85.000000,,2013-04-17 00:42:00,
2013-04-16 20:12:00,49.0,33.0,-100.00,East,96,6.0,15.0,53,0.00,,,0.00,30.000000,,2013-04-17 01:12:00,
2013-04-16 20:22:00,49.0,33.0,-100.00,East,96,6.0,15.0,53,0.00,,,0.00,30.000000,,2013-04-17 01:22:00,
2013-04-16 20:32:00,49.0,33.0,-100.00,East,96,6.0,15.0,53,0.00,,,0.00,30.000000,,2013-04-17 01:32:00,
2013-04-16 20:42:00,49.0,33.0,-100.00,East,96,6.0,15.0,53,0.00,,,0.00,30.000000,,2013-04-17 01:42:00,
2013-04-16 21:12:00,48.0,34.0,-100.00,East,91,4.0,13.0,59,0.00,,,0.00,1.000000,,2013-04-17 02:12:00,
2013-04-16 21:22:00,48.0,34.0,-100.00,East,91,4.0,13.0,59,0.00,,,0.00,1.000000,,2013-04-17 02:22:00,
2013-04-16 21:32:00,48.0,34.0,-100.00,East,91,4.0,13.0,59,0.00,,,0.00,1.000000,,2013-04-17 02:32:00,
2013-04-16 21:42:00,48.0,34.0,-100.00,East,91,4.0,13.0,59,0.00,,,0.00,1.000000,,2013-04-17 02:42:00,
2013-04-16 22:12:00,47.0,33.0,-100.00,ENE,72,6.0,13.0,59,0.00,,,0.00,0.000000,,2013-04-17 03:12:00,
2013-04-16 22:22:00,47.0,33.0,-100.00,ENE,72,6.0,13.0,59,0.00,,,0.00,0.000000,,2013-04-17 03:22:00,
2013-04-16 22:33:00,47.0,33.0,-100.00,ENE,72,6.0,13.0,59,0.00,,,0.00,0.000000,,2013-04-17 03:33:00,
2013-04-16 22:42:00,47.0,33.0,-100.00,ENE,72,6.0,13.0,59,0.00,,,0.00,0.000000,,2013-04-17 03:42:00,
2013-04-16 23:13:00,47.0,35.0,-100.00,ENE,75,3.0,13.0,64,0.00,,,0.00,0.000000,,2013-04-17 04:13:00,
2013-04-16 23:22:00,47.0,35.0,-100.00,ENE,75,3.0,13.0,64,0.00,,,0.00,0.000000,,2013-04-17 04:22:00,
2013-04-16 23:33:00,47.0,35.0,-100.00,ENE,75,3.0,13.0,64,0.00,,,0.00,0.000000,,2013-04-17 04:33:00,
2013-04-16 23:42:00,47.0,35.0,-100.00,ENE,75,3.0,13.0,64,0.00,,,0.00,0.000000,,2013-04-17 04:42:00,